カタログに戻る

CZ-6A DEB

運用中PO
NORAD 54598·DEBRIS·🇨🇳 China

打ち上げ Nov 11, 2022 から Taiyuan Satellite Launch Center

Loading…

次のパス (今後24時間)

TLE

最新Source: Space-Track

元期: Sep 14, 2026, 08:18 UTC

1 54598U 22151MY  26257.34609703  .00018452  00000-0  17325-2 0  9996
2 54598  98.9035  28.8915 0036067 312.9370  46.8822 14.93529198203980

AllMySatでCZ-6A DEBをリアルタイム追跡

Download on the App Store